{"data":{"norad_id":47806,"epoch":"2026-05-25T00:15:44.962848Z","epoch_age_seconds":73845,"freshness":"FRESH","line1":"1 47806U 21018V   26145.01093707  .00006229  00000+0  22226-3 0  9997","line2":"2 47806  53.1581 247.9369 0001108  76.3362 283.7762 15.30200841288475","mean_motion":15.30200841,"eccentricity":0.0001108,"inclination_deg":53.1581,"raan_deg":247.9369,"arg_perigee_deg":76.3362,"mean_anomaly_deg":283.7762,"bstar":0.00022226,"rev_number":28847,"period_min":94.105293986046,"perigee_km":474.453207215,"apogee_km":475.97190947713,"semimajor_km":6853.3495583461,"source":"CELESTRAK","updated_at":"2026-05-25T13:38:16.600978Z"}}